Tracking 20715 objects as of 27-May-2020
HD Live streaming from Space Station
objects crossing your sky now

IRIDIUM 33 DEB

Track IRIDIUM 33 DEB now!
10-day predictions


NORAD ID: 38033
Int'l Code: 1997-051YV
Perigee: 588.8 km
Apogee: 613.8 km
Inclination: 86.3 °
Period: 96.6 minutes
Semi major axis: 6972 km
RCS: 0.0032 m2 (small)
Launch date: September 14, 1997
Source: United States (US)
Launch site: TYURATAM MISSILE AND SPACE COMPLEX (TTMTR)

Note: This is SATELLITE DEBRIS
aabbcc
Your satellite tracking list
Your tracking list is empty




NASA's NSSDC Master Catalog

Two Line Element Set (TLE):
1 38033U 97051YV  20140.48256359 +.00003047 +00000-0 +30305-3 0  9996
2 38033 086.2755 057.9922 0017933 158.1736 202.0259 14.91199439953142
Source of the keplerian elements: AFSPC